1499749200.27,32208,16.88,74002.8,8.75,7.19,6.87,0,*7A
1499749201.52,32209,16.88,74006.3,8.75,6.91,6.17,0,*73
1499749202.75,32210,16.88,74004.0,8.75,6.43,5.37,0,*75
1499749204.01,32211,16.88,74002.3,8.77,5.81,3.75,0,*7B
1499749205.22,32212,16.88,73998.3,8.75,4.41,1.59,0,*7B
1499749206.45,32213,16.88,73998.8,8.75,3.19,-0.57,0,*62
1499749207.67,32214,16.88,73992.0,8.75,2.55,-0.57,0,*6C
1499749208.92,32215,16.88,73988.3,8.75,2.21,-0.85,0,*61
1499749210.11,32216,16.88,73986.5,8.75,0.05,-3.19,0,*50
1499749211.32,32217,16.88,73988.0,8.75,-1.59,-5.55,0,*7A
1499749212.54,32218,16.88,73982.5,8.75,-2.35,-6.31,0,*7D
1499749213.75,32219,16.88,73978.3,8.73,-2.19,-4.85,0,*79
1499749214.93,32220,16.88,73976.5,8.73,-1.75,-4.05,0,*72
1499749216.14,32221,16.88,73976.3,8.71,-2.79,-4.05,0,*7E
1499749217.35,32222,16.88,73974.3,8.73,-0.97,-1.25,0,*4A
1499749218.55,32223,16.88,73974.3,8.73,1.09,0.97,0,*45
1499749219.73,32224,16.88,73966.0,8.73,-0.53,-0.49,0,*7F
1499749220.91,32225,16.88,73978.3,8.73,0.43,0.75,0,*70
1499749222.14,32226,16.88,73982.8,8.75,0.59,0.41,0,*79
1499749223.34,32227,16.88,73976.0,8.75,-0.33,-0.45,0,*70
1499749224.56,32228,16.88,73980.0,8.71,0.41,0.09,0,*46
1499749225.73,32229,16.94,73980.0,8.73,-0.41,0.09,0,*68
1499749226.9,32230,16.88,73978.5,8.73,-0.53,0.09,0,*63
1499749228.13,32231,16.88,73984.3,8.75,1.83,1.85,0,*70
1499749229.38,32232,16.88,73986.8,8.75,2.05,1.93,0,*79
1499749230.57,32233,16.88,73980.8,8.75,2.65,2.31,0,*75
1499749231.83,32234,16.88,73984.3,8.75,3.07,3.49,0,*79
1499749233.04,32235,16.88,73982.8,8.77,2.35,2.65,0,*75
1499749234.29,32236,16.88,73984.5,8.75,3.49,3.97,0,*72
1499749235.49,32237,16.88,73980.0,8.79,4.49,4.93,0,*7B
1499749236.7,32238,16.88,73984.0,8.79,4.63,5.07,0,*70
1499749237.92,32239,16.88,73984.0,8.79,4.71,5.23,0,*74
1499749239.12,32240,16.88,73986.3,8.79,5.33,5.55,0,*7C
1499749240.3,32241,16.88,73982.8,8.79,5.41,5.29,0,*73
1499749241.5,32242,16.88,73986.8,8.81,5.19,5.45,0,*70
1499749242.73,32243,16.88,73984.3,8.81,6.25,6.53,0,*79
1499749243.95,32244,16.88,73984.0,8.81,6.11,6.57,0,*7D
1499749245.15,32245,16.88,73982.3,8.81,6.11,6.79,0,*70
1499749246.36,32246,16.88,73982.5,8.85,6.25,6.93,0,*74
1499749247.55,32247,16.88,73976.3,8.87,6.39,7.01,0,*70
1499749248.81,32248,16.88,73976.5,8.85,6.73,7.15,0,*76
1499749250.04,32249,16.88,73972.3,8.85,6.73,6.97,0,*7C
1499749251.24,32250,16.88,73968.8,8.85,7.41,7.55,0,*7B
1499749252.45,32251,16.88,73970.0,8.85,7.45,7.51,0,*7A
1499749253.67,32252,16.88,73966.5,8.87,7.65,7.69,0,*72
1499749254.93,32253,16.88,73968.8,8.85,7.73,7.73,0,*7D
1499749256.16,32254,16.88,73964.3,8.87,7.65,7.69,0,*74
1499749257.33,32255,16.88,73964.8,8.87,7.55,7.59,0,*75
1499749258.54,32256,16.88,73968.3,8.89,7.55,7.55,0,*74
1499749259.74,32257,16.88,73968.0,8.87,7.55,7.65,0,*78
1499749260.94,32258,16.88,73974.3,8.87,7.77,7.79,0,*7A
1499749262.18,32259,16.88,73974.8,8.89,7.87,7.91,0,*7C
1499749263.38,32260,16.88,73970.5,8.89,7.33,7.33,0,*71
1499749264.54,32261,16.88,73970.8,8.87,7.41,7.33,0,*7B
1499749265.77,32262,16.88,73968.0,8.87,7.23,7.11,0,*7C
1499749266.96,32263,16.88,73970.3,8.87,7.19,7.01,0,*75
1499749268.18,32264,16.88,73968.5,8.85,7.19,7.09,0,*78
1499749269.41,32265,16.88,73970.5,8.87,7.23,7.19,0,*73
1499749270.63,32266,16.88,73968.3,8.85,7.37,7.27,0,*7A
1499749271.85,32267,16.88,73970.3,8.87,7.19,7.23,0,*71
1499749273.06,32268,16.88,73970.5,8.85,7.37,7.29,0,*7A
1499749274.26,32269,16.88,73972.3,8.85,7.41,7.37,0,*75
1499749275.46,32270,16.88,73972.8,8.85,7.45,7.51,0,*79
1499749276.66,32271,16.88,73974.5,8.87,7.55,7.47,0,*7C
1499749277.86,32272,16.88,73968.0,8.87,7.59,7.65,0,*73
1499749279.09,32273,16.94,73974.3,8.85,7.55,7.61,0,*78
1499749280.31,32274,16.88,73972.5,8.87,7.65,7.65,0,*7A
1499749281.51,32275,16.88,73974.3,8.87,7.59,7.65,0,*74
1499749282.68,32276,16.88,73970.3,8.87,7.59,7.59,0,*78
1499749283.88,32277,16.88,73970.5,8.89,7.45,7.41,0,*73
1499749285.05,32278,16.88,73968.8,8.87,7.45,7.41,0,*72
1499749286.27,32279,16.88,73970.5,8.87,7.47,7.47,0,*77
1499749287.44,32280,16.88,73968.3,8.87,7.41,7.41,0,*71
1499749288.6,32281,16.88,73974.8,8.87,7.33,7.33,0,*70
1499749289.78,32282,16.88,73978.0,8.87,7.55,7.55,0,*73
1499749290.97,32283,16.88,73978.5,8.87,7.59,7.65,0,*7D
1499749292.14,32284,16.88,73980.5,8.87,7.45,7.45,0,*75
1499749293.31,32285,16.88,73976.8,8.87,7.45,7.41,0,*70
1499749294.48,32286,16.88,73978.0,8.87,7.33,7.33,0,*77
1499749295.65,32287,16.88,73978.5,8.87,7.33,7.29,0,*7D
1499749296.83,32288,16.88,73980.8,8.87,6.97,7.01,0,*77
1499749298.03,32289,16.88,73984.3,8.85,6.93,6.93,0,*7A
1499749299.28,32290,16.88,73980.3,8.85,7.19,7.19,0,*72
1499749300.48,32291,16.88,73980.3,8.85,6.97,7.05,0,*79
1499749301.72,32292,16.88,73982.5,8.85,7.27,7.29,0,*7E
1499749302.92,32293,16.88,73982.3,8.85,7.37,7.37,0,*71
1499749304.12,32294,16.94,73982.3,8.81,7.37,7.37,0,*72
1499749305.37,32295,16.88,73980.0,8.81,7.47,7.47,0,*73
1499749306.61,32296,16.88,73986.3,8.85,7.55,7.61,0,*73
1499749307.81,32297,16.88,73986.3,8.85,7.55,7.45,0,*74
1499749309.06,32298,16.88,73986.5,8.81,7.47,7.47,0,*7E
1499749310.26,32299,16.88,73986.0,8.79,7.51,7.47,0,*7F
1499749311.48,32300,16.88,73984.8,8.81,7.51,7.47,0,*79
1499749312.69,32301,16.88,73988.8,8.81,7.59,7.59,0,*7F
1499749313.92,32302,16.88,73984.5,8.81,7.59,7.61,0,*77
1499749315.15,32303,16.88,73986.3,8.81,7.61,7.59,0,*76
1499749316.36,32304,16.88,73988.0,8.85,7.55,7.51,0,*7A
1499749317.59,32305,16.88,73988.8,8.81,7.47,7.41,0,*7D
1499749318.79,32306,16.88,73988.5,8.79,7.47,7.41,0,*79
1499749319.99,32307,16.88,73986.0,8.79,7.41,7.47,0,*78
1499749321.21,32308,16.88,73990.0,8.81,7.47,7.41,0,*70
1499749322.44,32309,16.88,73990.8,8.81,7.47,7.51,0,*70
1499749323.7,32310,16.88,73988.8,8.81,7.61,7.69,0,*77
1499749324.94,32311,16.94,73994.0,8.79,7.69,7.61,0,*71
1499749326.17,32312,16.88,73990.8,8.79,7.61,7.69,0,*72
1499749327.4,32313,16.88,73990.0,8.81,7.61,7.59,0,*77
1499749328.58,32314,16.88,73990.8,8.79,7.51,7.51,0,*7C
1499749329.78,32315,16.88,73988.0,8.79,7.33,7.23,0,*7C
1499749331.01,32316,16.88,73990.8,8.79,7.23,7.11,0,*7F
1499749332.19,32317,16.88,73988.3,8.79,7.41,7.37,0,*7E
1499749333.39,32318,16.88,73990.8,8.79,7.33,7.27,0,*75
1499749334.62,32319,16.88,73992.0,8.81,7.47,7.41,0,*70
1499749335.82,32320,16.94,73996.8,8.79,7.51,7.47,0,*7C
1499749337.0,32321,16.88,73996.8,8.79,7.51,7.41,0,*7B
1499749338.22,32322,16.88,73992.0,8.79,7.47,7.47,0,*79
1499749339.4,32323,16.88,73998.3,8.79,7.59,7.51,0,*70
1499749340.61,32324,16.94,74000.5,8.79,7.61,7.59,0,*74
1499749341.82,32325,16.94,74000.0,8.81,7.59,7.59,0,*79
1499749343.02,32326,16.94,74002.0,8.79,7.51,7.47,0,*7A
1499749344.22,32327,16.88,73996.3,8.79,7.51,7.47,0,*7B
1499749345.42,32328,16.88,74000.8,8.79,7.59,7.47,0,*7C
1499749346.67,32329,16.88,73996.8,8.77,7.47,7.47,0,*7C
1499749347.87,32330,16.88,73996.8,8.79,7.47,7.41,0,*7C
1499749349.08,32331,16.88,73998.8,8.77,7.45,7.45,0,*75
1499749350.3,32332,16.88,73998.8,8.77,7.47,7.45,0,*74
1499749351.51,32333,16.88,73994.0,8.77,7.37,7.37,0,*77
1499749352.71,32334,16.94,73998.3,8.77,7.45,7.45,0,*70
1499749353.92,32335,16.88,73996.0,8.79,7.47,7.51,0,*78
1499749355.12,32336,16.88,73996.8,8.75,7.45,7.45,0,*70
1499749356.31,32337,16.88,73996.5,8.75,7.45,7.45,0,*71
1499749357.54,32338,16.88,73994.8,8.77,7.47,7.55,0,*7F
1499749358.75,32339,16.88,73998.8,8.75,7.55,7.55,0,*7F
1499749359.96,32340,16.88,73996.0,8.77,7.59,7.59,0,*73
1499749361.19,32341,16.94,73996.0,8.77,7.65,7.59,0,*7D
1499749362.44,32342,16.88,73996.5,8.75,7.77,7.69,0,*7C
1499749363.67,32343,16.88,73994.0,8.77,7.65,7.59,0,*7F
1499749364.9,32344,16.88,73996.5,8.77,7.59,7.65,0,*78
1499749366.1,32345,16.88,73992.5,8.75,7.59,7.59,0,*74
1499749367.28,32346,16.88,73998.3,8.79,7.51,7.59,0,*73
1499749368.51,32347,16.88,73994.0,8.75,7.65,7.59,0,*79
1499749369.74,32348,16.88,73990.5,8.77,7.55,7.47,0,*78
1499749370.98,32349,16.88,73992.3,8.75,7.69,7.65,0,*74
1499749372.25,32350,16.88,73996.0,8.75,7.77,7.69,0,*7F
1499749373.47,32351,16.88,73994.5,8.75,7.65,7.59,0,*7E
1499749374.69,32352,16.88,73992.8,8.77,7.59,7.47,0,*7F
1499749375.9,32353,16.88,73994.3,8.77,7.55,7.55,0,*71
1499749377.15,32354,16.94,73996.8,8.77,7.65,7.65,0,*76
1499749378.42,32355,16.88,73994.3,8.77,7.77,7.77,0,*77
1499749379.68,32356,16.88,73992.8,8.77,7.69,7.69,0,*74
1499749380.92,32357,16.88,73994.3,8.77,7.79,7.77,0,*7B
1499749382.17,32358,16.88,73994.0,8.77,7.65,7.65,0,*7A
1499749383.43,32359,16.88,73996.0,8.77,7.77,7.77,0,*7B
1499749384.69,32360,16.88,73996.5,8.77,7.65,7.77,0,*72
1499749385.9,32361,16.88,73994.3,8.79,7.77,7.79,0,*70
1499749387.08,32362,16.88,73994.8,8.79,7.51,7.51,0,*7D
1499749388.29,32363,16.88,73994.8,8.77,7.45,7.37,0,*77
1499749389.49,32364,16.88,73992.0,8.77,7.33,7.37,0,*71
1499749390.69,32365,16.88,73994.3,8.77,7.37,7.37,0,*74
1499749391.92,32366,16.88,73994.8,8.75,7.55,7.47,0,*76
1499749393.13,32367,16.88,73992.0,8.77,7.55,7.55,0,*76
1499749394.39,32368,16.88,73992.8,8.77,7.77,7.77,0,*79
1499749395.64,32369,16.88,73988.8,8.77,7.87,7.87,0,*78
1499749396.84,32370,16.88,73990.8,8.77,7.97,7.97,0,*70
1499749398.1,32371,16.88,73988.0,8.77,7.91,7.91,0,*71
1499749399.33,32372,16.88,73986.5,8.77,7.79,7.87,0,*73
1499749400.59,32373,16.88,73988.5,8.77,7.77,7.77,0,*73
1499749401.82,32374,16.88,73988.5,8.79,7.95,7.91,0,*7E
1499749403.05,32375,16.88,73992.5,8.79,7.91,7.91,0,*7B
1499749404.23,32376,16.88,73996.8,8.79,8.01,8.01,0,*78
1499749405.48,32377,16.88,73998.3,8.81,7.95,7.91,0,*7A
1499749406.71,32378,16.88,73998.8,8.79,7.95,7.91,0,*72
1499749407.95,32379,16.88,73998.3,8.79,7.95,7.95,0,*77
1499749409.13,32380,16.88,74002.3,8.79,8.01,8.01,0,*71
1499749410.34,32381,16.88,73996.5,8.79,8.13,8.01,0,*73
1499749411.59,32382,16.88,73996.8,8.81,8.13,8.13,0,*74
1499749412.83,32383,16.88,74000.5,8.81,8.13,8.05,0,*72
1499749414.06,32384,16.88,73998.3,8.81,8.13,8.15,0,*74
1499749415.27,32385,16.88,74000.5,8.85,8.15,8.15,0,*77
1499749416.47,32386,16.88,74002.5,8.85,8.15,8.09,0,*79
1499749417.73,32387,16.88,74002.8,8.81,7.95,7.95,0,*71
1499749418.9,32388,16.88,74002.8,8.87,8.05,8.05,0,*78
1499749420.1,32389,16.88,74006.5,8.85,8.05,8.05,0,*7B
1499749421.3,32390,16.88,74004.0,8.85,7.97,8.05,0,*77
1499749422.53,32391,16.88,74004.8,8.87,8.13,8.13,0,*70
1499749423.74,32392,16.88,74006.8,8.85,8.15,8.15,0,*71
1499749424.94,32393,16.88,74008.3,8.87,8.19,8.13,0,*78
1499749426.14,32394,16.88,74008.8,8.87,8.13,8.09,0,*7E
1499749427.37,32395,16.88,74010.0,8.87,8.13,8.13,0,*74
1499749428.57,32396,16.88,74004.8,8.89,8.09,8.09,0,*79
1499749429.77,32397,16.88,74008.5,8.89,8.09,8.19,0,*79
1499749430.97,32398,16.88,74010.5,8.89,8.19,8.19,0,*77
1499749432.18,32399,16.88,74010.5,8.89,8.19,8.19,0,*76
1499749433.39,32400,16.88,74010.5,8.89,8.27,8.27,0,*71
1499749434.59,32401,16.88,74010.0,8.89,8.23,8.23,0,*70
1499749435.8,32402,16.88,74008.8,8.89,8.23,8.23,0,*73
1499749436.98,32403,16.88,74004.5,8.91,8.15,8.27,0,*7A
1499749438.18,32404,16.88,74006.5,8.89,8.23,8.23,0,*75
1499749439.38,32405,16.88,74002.8,8.91,8.29,8.27,0,*73
1499749440.59,32406,16.88,74006.5,8.89,8.27,8.27,0,*77
1499749441.82,32407,16.88,74002.8,8.91,8.37,8.41,0,*7E
1499749443.04,32408,16.88,74002.5,8.93,8.29,8.27,0,*7C
1499749444.25,32409,16.88,74004.3,8.93,8.23,8.27,0,*77
1499749445.46,32410,16.88,74000.3,8.93,8.23,8.27,0,*7F
1499749446.67,32411,16.88,74002.0,8.93,8.27,8.27,0,*7A
1499749447.87,32412,16.88,74002.5,8.93,8.23,8.23,0,*79
1499749449.05,32413,16.88,74002.5,8.95,8.19,8.27,0,*73
1499749450.26,32414,16.88,74006.0,8.93,8.23,8.23,0,*7F
1499749451.44,32415,16.88,74004.3,8.95,8.19,8.19,0,*78
1499749452.64,32416,16.88,74000.8,8.93,8.15,8.15,0,*7D
1499749453.84,32417,16.88,74006.0,8.93,8.23,8.23,0,*7C
1499749455.07,32418,16.88,74006.3,8.93,8.23,8.33,0,*72
1499749456.27,32419,16.88,74004.8,8.95,8.29,8.27,0,*7A
1499749457.45,32420,16.88,74006.3,8.95,8.19,8.27,0,*73
1499749458.66,32421,16.88,74002.3,8.95,8.27,8.33,0,*7A
1499749459.88,32422,16.88,74004.5,8.97,8.23,8.33,0,*7F
1499749461.13,32423,16.88,74004.5,8.97,8.29,8.33,0,*74
1499749462.37,32424,16.88,74002.3,8.97,8.29,8.29,0,*78
1499749463.57,32425,16.88,74004.5,8.99,8.19,8.29,0,*74
1499749464.81,32426,16.88,74006.8,8.97,8.29,8.33,0,*71
1499749466.02,32427,16.88,74004.5,8.99,8.23,8.33,0,*74
1499749467.24,32428,16.94,74006.5,8.97,8.13,8.23,0,*77
1499749468.42,32429,16.88,74004.0,8.99,8.19,8.23,0,*72
1499749469.61,32430,16.88,74004.3,8.99,8.13,8.23,0,*70
1499749470.81,32431,16.88,74002.8,8.99,8.19,8.29,0,*71
1499749472.03,32432,16.94,74008.3,8.99,8.29,8.29,0,*71
1499749473.25,32433,16.88,74004.0,8.99,8.37,8.33,0,*74
1499749474.5,32434,16.88,74004.3,9.01,8.51,8.47,0,*70
1499749475.72,32435,16.88,74002.3,9.03,8.37,8.37,0,*74
1499749476.92,32436,16.88,74002.8,9.03,8.27,8.33,0,*72
1499749478.18,32437,16.88,74006.5,9.01,8.33,8.33,0,*74
1499749479.4,32438,16.88,74006.5,9.03,8.47,8.47,0,*79
1499749480.62,32439,16.88,74006.0,9.03,8.37,8.37,0,*78
1499749481.85,32440,16.88,74004.0,9.03,8.37,8.37,0,*76
1499749483.05,32441,16.88,74006.5,9.03,8.27,8.37,0,*76
1499749484.31,32442,16.88,74004.3,9.05,8.55,8.55,0,*72
1499749485.55,32443,16.88,74002.8,9.05,8.37,8.41,0,*72
1499749486.76,32444,16.88,74004.8,9.09,8.59,8.65,0,*77
1499749487.96,32445,16.88,74002.0,9.09,8.59,8.69,0,*7A
1499749489.17,32446,16.94,74004.3,9.09,8.55,8.65,0,*79
1499749490.37,32447,16.88,74000.5,9.09,8.59,8.65,0,*74
1499749491.6,32448,16.88,74000.5,9.11,8.59,8.65,0,*72
1499749492.86,32449,16.88,74006.0,9.11,8.59,8.59,0,*7C
1499749494.12,32450,16.88,74002.0,9.11,8.59,8.55,0,*78
1499749495.37,32451,16.88,74006.0,9.11,8.33,8.41,0,*70
1499749496.61,32452,16.88,74004.5,9.13,8.37,8.37,0,*74
1499749497.84,32453,16.88,74006.5,9.13,8.33,8.37,0,*71
1499749499.07,32454,16.88,74006.0,9.13,8.37,8.33,0,*76
1499749500.32,32455,16.88,74002.8,9.15,8.37,8.37,0,*75
1499749501.57,32456,16.88,74002.3,9.15,8.41,8.47,0,*70
1499749502.82,32457,16.88,74002.3,9.15,8.51,8.51,0,*77
1499749504.07,32458,16.88,74000.3,9.15,8.51,8.55,0,*7C
1499749505.32,32459,16.88,74004.0,9.15,8.51,8.55,0,*7D
1499749506.55,32460,16.88,74006.5,9.17,8.51,8.51,0,*71
1499749507.78,32461,16.88,74006.3,9.17,8.41,8.47,0,*76
1499749509.01,32462,16.88,74004.5,9.17,8.47,8.47,0,*73
1499749510.25,32463,16.94,74010.0,9.17,8.55,8.55,0,*72
1499749511.49,32464,16.88,74006.8,9.17,8.55,8.55,0,*75
1499749512.7,32465,16.88,74008.5,9.17,8.55,8.61,0,*73
1499749513.9,32466,16.88,74010.5,9.17,8.51,8.61,0,*74
1499749515.17,32467,16.94,74008.5,9.19,8.55,8.55,0,*78
1499749516.37,32468,16.88,74004.8,9.21,8.59,8.61,0,*77
1499749517.6,32469,16.88,74006.5,9.21,8.37,8.47,0,*7A
1499749518.8,32470,16.88,74006.0,9.19,8.45,8.45,0,*7E
1499749520.01,32471,16.94,74010.0,9.19,8.45,8.45,0,*7F
1499749521.27,32472,16.88,74008.5,9.19,8.55,8.55,0,*7C
1499749522.5,32473,16.88,74008.0,9.21,8.59,8.59,0,*76
1499749523.73,32474,16.88,74010.3,9.21,8.59,8.59,0,*71
1499749524.99,32475,16.88,74006.5,9.23,8.59,8.59,0,*72
1499749526.24,32476,16.88,74004.5,9.23,8.59,8.59,0,*71
1499749527.46,32477,16.88,74004.8,9.23,8.69,8.71,0,*79
1499749528.69,32478,16.88,74004.8,9.23,8.59,8.61,0,*74
1499749529.92,32479,16.94,74006.8,9.25,8.71,8.71,0,*78
1499749531.14,32480,16.88,74002.5,9.25,8.75,8.75,0,*7E
1499749532.33,32481,16.88,74006.0,9.25,8.65,8.71,0,*7A
1499749533.51,32482,16.88,74006.3,9.25,8.61,8.61,0,*7C
1499749534.71,32483,16.94,74010.3,9.25,8.59,8.65,0,*72
1499749535.94,32484,16.88,74006.0,9.25,8.59,8.51,0,*72
1499749537.16,32485,16.88,74004.0,9.25,8.37,8.51,0,*7B
1499749538.39,32486,16.88,74002.8,9.25,8.47,8.59,0,*77
1499749539.64,32487,16.88,74006.3,9.27,8.29,8.59,0,*7C
1499749540.89,32488,16.88,74000.3,9.27,8.29,8.51,0,*7B
1499749542.12,32489,16.88,74000.0,9.27,7.87,8.05,0,*70
1499749543.37,32490,16.88,73998.3,9.27,7.73,7.83,0,*72
1499749544.6,32491,16.88,74002.0,9.27,7.59,7.61,0,*77
1499749545.86,32492,16.88,74002.0,9.27,7.73,7.73,0,*7F
1499749547.09,32493,16.88,73996.0,9.31,7.61,7.55,0,*7E
1499749548.29,32494,16.88,74000.8,9.27,7.37,7.37,0,*79
1499749549.52,32495,16.94,74008.3,9.25,7.27,7.19,0,*77
1499749550.74,32496,16.88,74000.3,9.25,7.19,7.11,0,*71
1499749551.94,32497,16.88,73998.0,9.23,7.01,6.97,0,*70
1499749553.19,32498,16.88,73998.0,9.23,7.15,7.11,0,*75
1499749554.45,32499,16.94,74000.5,9.23,7.23,7.11,0,*71
1499749555.65,32500,16.88,73996.3,9.21,7.33,7.27,0,*76
1499749556.87,32501,16.94,73994.0,9.21,6.91,6.87,0,*75
1499749558.07,32502,16.88,73988.5,9.19,7.09,7.05,0,*76
1499749559.3,32503,16.88,73990.3,9.21,7.27,7.27,0,*70
1499749560.48,32504,16.88,73994.0,9.21,7.37,7.33,0,*73
1499749561.65,32505,16.94,73992.0,9.21,7.09,7.09,0,*76
1499749562.85,32506,16.88,73992.8,9.19,7.45,7.45,0,*7E
1499749564.04,32507,16.88,73994.0,9.17,7.29,7.29,0,*71
1499749565.27,32508,16.88,73996.5,9.17,7.47,7.47,0,*7E
1499749566.46,32509,16.88,73994.3,9.17,7.15,7.01,0,*7A
1499749567.69,32510,16.88,73994.3,9.15,7.19,7.09,0,*74
1499749568.91,32511,16.88,73988.5,9.15,7.15,7.05,0,*75
1499749570.1,32512,16.88,73994.3,9.15,7.09,7.05,0,*7B
1499749571.29,32513,16.94,74002.0,9.15,7.05,7.01,0,*72
1499749572.53,32514,16.88,73994.0,9.15,7.27,7.29,0,*7F
1499749573.73,32515,16.88,73988.0,9.15,7.37,7.29,0,*7F
1499749574.96,32516,16.88,73984.5,9.13,7.27,7.23,0,*71
1499749576.19,32517,16.94,73980.3,9.13,7.23,7.15,0,*71
1499749577.37,32518,16.88,73980.0,9.13,7.05,7.05,0,*7B
1499749578.56,32519,16.94,73980.8,9.13,7.11,7.01,0,*7B
1499749579.76,32520,16.94,73978.0,9.11,6.75,6.83,0,*7B
1499749580.96,32521,16.88,73986.3,9.11,7.09,7.01,0,*7B
1499749582.22,32522,16.88,73990.8,9.11,7.23,7.23,0,*70
1499749583.45,32523,16.94,73984.3,9.09,7.11,7.11,0,*78
1499749584.62,32524,16.88,73978.8,9.09,6.83,6.83,0,*7F
1499749585.85,32525,16.88,73986.3,9.09,7.23,7.23,0,*7E
1499749587.04,32526,16.88,73982.5,9.05,7.37,7.41,0,*70
1499749588.23,32527,16.88,73988.8,9.09,7.33,7.29,0,*77
1499749589.42,32528,16.88,73988.0,9.05,7.37,7.37,0,*7F
1499749590.59,32529,16.94,73998.5,9.09,7.41,7.33,0,*77
1499749591.78,32530,16.88,73988.8,9.09,7.29,7.29,0,*7A
1499749592.95,32531,16.88,73980.3,9.09,7.33,7.33,0,*7B
1499749594.2,32532,16.88,73990.5,9.05,7.27,7.15,0,*75
1499749595.45,32533,16.88,73990.5,9.05,7.19,7.15,0,*79
1499749596.65,32534,16.88,73988.5,9.05,7.37,7.29,0,*7D
1499749597.86,32535,16.94,73992.5,9.03,7.47,7.47,0,*75
1499749599.08,32536,16.88,73984.8,9.05,7.51,7.47,0,*77
1499749600.3,32537,16.94,73984.8,9.05,7.47,7.37,0,*76
1499749601.47,32538,16.94,73986.5,9.03,7.37,7.33,0,*7C
1499749602.66,32539,16.88,73984.5,9.05,7.41,7.41,0,*7F
1499749603.85,32540,16.88,73984.3,9.03,7.33,7.27,0,*72
1499749605.08,32541,16.88,73984.5,9.03,7.23,7.15,0,*73
1499749606.27,32542,16.88,73980.0,9.03,7.11,7.05,0,*70
1499749607.52,32543,16.94,73982.5,9.01,7.15,7.15,0,*76
1499749608.77,32544,16.88,73980.3,9.01,7.11,7.11,0,*71
1499749609.99,32545,16.94,73984.3,9.01,7.11,7.05,0,*75
1499749611.24,32546,16.88,73986.0,9.01,7.27,7.23,0,*77
1499749612.44,32547,16.94,73980.0,9.03,7.11,7.05,0,*75
1499749613.64,32548,16.94,73980.3,9.01,7.05,6.93,0,*73
1499749614.82,32549,16.88,73978.0,8.97,7.01,7.01,0,*72
1499749615.99,32550,16.88,73978.3,8.99,7.01,7.01,0,*74
1499749617.17,32551,16.88,73978.5,8.97,7.01,7.01,0,*7B
1499749618.38,32552,16.94,73980.3,8.99,7.29,7.19,0,*75
1499749619.62,32553,16.94,73984.0,8.97,7.19,7.11,0,*71
1499749620.82,32554,16.88,73980.8,8.97,7.09,6.97,0,*78
1499749622.04,32555,16.94,73976.5,8.97,6.83,6.65,0,*77
1499749623.26,32556,16.94,73982.0,8.93,6.75,6.57,0,*78
1499749624.47,32557,16.88,73978.3,8.95,6.69,6.57,0,*72
1499749625.66,32558,16.88,73976.3,8.95,6.83,6.69,0,*74
1499749626.86,32559,16.94,73976.0,8.93,6.93,6.83,0,*76
1499749628.06,32560,16.94,73980.3,8.93,7.05,6.93,0,*73
1499749629.31,32561,16.88,73980.8,8.93,7.27,7.15,0,*7D
1499749630.51,32562,16.88,73984.5,8.95,7.47,7.29,0,*71
1499749631.71,32563,16.88,73984.0,8.95,7.37,7.15,0,*78
1499749632.91,32564,16.94,73984.3,8.95,7.29,7.15,0,*70
1499749634.11,32565,16.88,73980.5,8.95,7.29,7.15,0,*71
1499749635.3,32566,16.88,73984.5,8.93,7.05,7.01,0,*7F
1499749636.56,32567,16.88,73986.8,8.93,7.27,7.15,0,*7B
1499749637.73,32568,16.94,73988.8,8.95,7.41,7.29,0,*7D
1499749638.91,32569,16.88,73988.5,8.95,7.41,7.29,0,*7C
1499749640.1,32570,16.94,73990.3,8.95,7.37,7.19,0,*76
1499749641.32,32571,16.94,73988.5,8.93,7.11,7.01,0,*7C
1499749642.51,32572,16.88,73990.3,8.93,7.01,6.93,0,*74
1499749643.68,32573,16.88,73990.0,8.95,7.09,7.09,0,*79
1499749644.91,32574,16.94,73990.3,8.95,7.27,7.19,0,*73
1499749646.16,32575,16.88,73988.3,8.93,7.27,7.27,0,*79
1499749647.41,32576,16.88,73994.0,8.93,7.23,7.27,0,*7E
1499749648.61,32577,16.88,73996.3,8.93,7.45,7.37,0,*7E
1499749649.78,32578,16.94,73998.0,8.95,7.41,7.37,0,*73
1499749650.95,32579,16.88,73992.8,8.95,7.41,7.37,0,*72
1499749652.15,32580,16.88,73996.5,8.93,7.37,7.37,0,*73
1499749653.35,32581,16.94,74002.0,8.93,7.51,7.59,0,*7A
1499749654.55,32582,16.88,73996.5,8.93,7.51,7.51,0,*71
1499749655.78,32583,16.94,74000.3,8.93,7.47,7.45,0,*72
1499749657.01,32584,16.94,74000.3,8.93,7.59,7.61,0,*7C
1499749658.23,32585,16.94,73998.5,8.95,7.65,7.73,0,*77
1499749659.45,32586,16.88,73998.8,8.95,7.65,7.65,0,*73
1499749660.67,32587,16.88,73996.8,8.95,7.65,7.65,0,*72
1499749661.89,32588,16.88,73998.0,8.95,7.65,7.61,0,*79
1499749663.09,32589,16.88,74000.3,8.93,7.59,7.59,0,*7A
1499749664.3,32590,16.88,74000.3,8.95,7.55,7.61,0,*73
1499749665.48,32591,16.94,74006.8,8.95,7.55,7.55,0,*75
1499749666.71,32592,16.88,73996.8,8.95,7.61,7.61,0,*76
1499749667.91,32593,16.88,73992.3,8.95,7.47,7.29,0,*7F
1499749669.11,32594,16.88,73988.3,8.95,7.37,7.27,0,*71
1499749670.34,32595,16.88,73990.0,8.97,7.23,7.29,0,*79
1499749671.53,32596,16.88,73982.3,8.95,7.47,7.41,0,*74
1499749672.74,32597,16.94,73984.8,8.95,7.61,7.55,0,*74
1499749673.97,32598,16.88,73986.3,8.93,7.51,7.61,0,*79
1499749675.19,32599,16.88,73990.0,8.95,7.61,7.61,0,*7D
1499749676.41,32600,16.94,73992.5,8.95,7.65,7.65,0,*7E
1499749677.61,32601,16.88,73988.3,8.95,7.61,7.55,0,*78
1499749678.82,32602,16.88,73988.5,8.95,7.55,7.61,0,*7B
1499749680.05,32603,16.88,73986.3,8.95,7.61,7.61,0,*7D
1499749681.23,32604,16.88,73986.3,8.95,7.55,7.55,0,*7A
1499749682.43,32605,16.94,73988.5,8.95,7.55,7.47,0,*78
1499749683.66,32606,16.94,73990.8,8.95,7.61,7.61,0,*78
1499749684.87,32607,16.88,73986.3,8.95,7.65,7.65,0,*79
1499749686.09,32608,16.88,73984.8,8.95,7.65,7.65,0,*76
1499749687.34,32609,16.94,73986.5,8.97,7.65,7.65,0,*75
1499749688.56,32610,16.94,73988.0,8.95,7.65,7.61,0,*7B
1499749689.79,32611,16.88,73988.3,8.97,7.65,7.59,0,*73
1499749691.01,32612,16.94,73992.3,8.97,7.87,7.79,0,*7E
1499749692.26,32613,16.88,73992.5,8.97,7.69,7.69,0,*7E
1499749693.52,32614,16.94,73992.0,8.97,7.69,7.69,0,*79
1499749694.73,32615,16.94,73994.8,8.99,7.87,7.87,0,*76
1499749695.93,32616,16.94,73996.3,8.99,8.01,7.91,0,*73
1499749697.15,32617,16.88,73990.0,8.99,7.91,7.91,0,*74
1499749698.32,32618,16.94,73988.0,8.99,8.01,7.97,0,*7B
1499749699.58,32619,16.94,73990.5,9.01,7.91,7.95,0,*7E
1499749700.78,32620,16.88,73992.0,9.01,8.01,8.01,0,*70
1499749701.96,32621,16.94,73998.3,9.03,8.23,8.05,0,*77
1499749703.18,32622,16.94,73988.0,9.05,7.97,7.95,0,*74
1499749704.4,32623,16.94,73992.5,9.03,7.95,7.83,0,*76
1499749705.6,32624,16.94,73988.5,9.03,8.13,8.05,0,*71
1499749706.79,32625,16.94,73986.8,9.05,7.97,8.09,0,*79
1499749707.98,32626,16.94,73990.8,9.05,8.05,7.97,0,*76
1499749709.23,32627,16.94,73992.8,9.05,7.95,7.87,0,*70
1499749710.4,32628,16.94,73998.3,9.09,7.97,7.97,0,*70
1499749711.64,32629,16.94,73994.0,9.09,7.61,7.69,0,*79
1499749712.83,32630,16.88,73992.0,9.09,7.79,7.79,0,*79
1499749714.06,32631,16.88,73992.5,9.09,7.69,7.77,0,*77
1499749715.25,32632,16.94,73998.5,9.09,7.55,7.51,0,*7F
1499749716.5,32633,16.88,73996.5,9.11,7.69,7.69,0,*73
1499749717.7,32634,16.94,73994.0,9.11,7.33,7.33,0,*74
1499749718.91,32635,16.94,73994.5,9.11,6.97,6.93,0,*71
1499749720.09,32636,16.88,73992.3,9.09,6.97,6.93,0,*7B
1499749721.3,32637,16.88,73986.0,9.09,6.87,6.93,0,*7B
1499749722.55,32638,16.88,73988.0,9.05,6.91,6.91,0,*7D
1499749723.72,32639,16.94,73980.0,9.09,7.01,6.97,0,*7E
1499749724.92,32640,16.94,73976.3,9.05,7.09,7.09,0,*72
1499749726.12,32641,16.88,73976.3,9.09,7.29,7.47,0,*77
1499749727.32,32642,16.88,73972.8,9.05,7.41,7.37,0,*71
1499749728.57,32643,16.94,73972.0,9.05,7.27,7.27,0,*71